Weather History for Bonaire, Bonaire

Change the Weather History Date:

Friday, October 8, 2010

  Actual Average Record
Temperature  
Mean Temperature 86 °F -  
Max Temperature 92 °F 87 °F 95 °F (2005)
Min Temperature 81 °F 80 °F 73 °F (2007)
Cooling Degree Days 22    
Growing Degree Days 36 (Base 50)    
Moisture  
Dew Point 80 °F    
Average Humidity 83    
Maximum Humidity 98    
Minimum Humidity 66    
Precipitation  
Precipitation 0.00 in - - ()
Sea Level Pressure  
Sea Level Pressure 29.85 in    
Wind  
Wind Speed 6 mph ()    
Max Wind Speed 15 mph    
Max Gust Speed -    
Visibility 8.7 miles    
Events      
Averages and records for this station are not official NWS values.
T = Trace of Precipitation, MM = Missing Value Source: Averaged Metar Reports

Daily Weather History Graph

Daily Weather History Graph

Search for Another Location

Airport:

Trip Planner

Search our weather history database for the weather conditions in past years. The results will help you decide how hot, cold, wet, or windy it might be!

Date:

Astronomy

Oct. 08, 2010 Rise Set
Actual Time 6:22 AM AST 6:18 PM AST
Civil Twilight 6:01 AM AST 6:39 PM AST
Nautical Twilight 5:36 AM AST 7:04 PM AST
Astronomical Twilight 5:11 AM AST 7:29 PM AST
Moon 7:00 AM AST (10/8) 6:59 PM AST (10/8)
Length of Visible Light 12h 38m
Length of Day
11h 56m
New Moon, 1% of the Moon is Illuminated
Oct 8
New Moon
Oct 14
First Quarter
Oct 22
Full
Oct 30
Last Quarter
Nov 6
New

Hourly Weather History & Observations

Time (AST) Temp. Heat Index Dew Point Humidity Pressure Visibility Wind Dir Wind Speed Gust Speed Precip Events Conditions
12:00 AM 82.4 °F 94.0 °F 80.6 °F 94% 29.89 in - North - - N/A   Unknown
1:00 AM 82.4 °F 94.0 °F 80.6 °F 94% 29.86 in - North - - N/A   Unknown
2:00 AM 82 °F - 81 °F 95%  in 6 mi SE 3.5 mph - -   Clear
2:00 AM 82.4 °F 94.0 °F 80.6 °F 94% 29.86 in - North - - N/A   Unknown
3:00 AM 82.4 °F 94.0 °F 80.6 °F 94% 29.83 in - North - - N/A   Unknown
4:00 AM 82.4 °F 94.0 °F 80.6 °F 94% 29.83 in - North - - N/A   Unknown
5:00 AM 82 °F - 77 °F 82%  in - SE 3.5 mph - -   Clear
5:00 AM 82.4 °F 90.9 °F 77.0 °F 84% 29.83 in - North - - N/A   Unknown
6:00 AM 80.6 °F 88.1 °F 78.8 °F 94% 29.83 in - North - - N/A   Unknown
7:00 AM 84.2 °F 98.3 °F 80.6 °F 89% 29.86 in - North - - N/A   Unknown
8:00 AM 87 °F - 81 °F 76% 29.88 in 16 mi ESE 6.9 mph - -   Partly Cloudy
8:00 AM 86.0 °F 101.9 °F 80.6 °F 84% 29.86 in 6.2 mi ESE 6.9 mph - N/A   Scattered Clouds
9:00 AM - - - N/A% - 6.2 mi SE 3.5 mph - N/A   Scattered Clouds
10:00 AM 89 °F - 80 °F 70% 29.92 in 16 mi SE 10.4 mph - -   Partly Cloudy
10:00 AM 87.8 °F 104.9 °F 80.6 °F 79% 29.89 in 6.2 mi ESE 11.5 mph - N/A   Mostly Cloudy
11:00 AM 89.6 °F 108.2 °F 80.6 °F 75% 29.89 in 6.2 mi SE 10.4 mph - N/A   Scattered Clouds
1:00 PM 91.4 °F 111.0 °F 80.6 °F 71% 29.86 in 6.2 mi ESE 6.9 mph - N/A   Scattered Clouds
2:00 PM 90 °F - 80 °F 66%  in 6 mi SE 3.5 mph - -   Clear
2:00 PM 89.6 °F 108.2 °F 80.6 °F 75% 29.83 in - North - - N/A   Unknown
3:00 PM 89.6 °F 108.2 °F 80.6 °F 75% 29.83 in - North - - N/A   Unknown
4:00 PM 89.6 °F 104.7 °F 78.8 °F 70% 29.80 in - North - - N/A   Unknown
5:00 PM 88 °F - 87 °F 98% 29.80 in 16 mi East 11.5 mph - -   Scattered Clouds
5:00 PM 89.6 °F 104.7 °F 78.8 °F 70% 29.80 in 6.2 mi East 11.5 mph - N/A   Partly Cloudy
6:00 PM 86.0 °F 99.3 °F 78.8 °F 79% 29.80 in - North - - N/A   Unknown
7:00 PM 84.2 °F 96.1 °F 78.8 °F 84% 29.83 in - North - - N/A   Unknown
8:00 PM 84 °F - 82 °F 93% 29.86 in 12 mi East 12.7 mph - -   Scattered Clouds
8:00 PM 84.2 °F 96.1 °F 78.8 °F 84% 29.86 in 6.2 mi East 15.0 mph - N/A   Partly Cloudy
9:00 PM 84.2 °F 96.1 °F 78.8 °F 84% 29.86 in - North - - N/A   Unknown
10:00 PM 84.2 °F 96.1 °F 78.8 °F 84% 29.89 in 6.2 mi SE 3.5 mph - N/A   Partly Cloudy
11:00 PM 84 °F - 79 °F 80%  in - SE 3.5 mph - -   Clear
11:00 PM 84.2 °F 96.1 °F 78.8 °F 84% 29.89 in - SE 3.5 mph - N/A   Unknown